Miscellaneous Local Product
Issued by NWS Hastings, NE

Home | Current Version | Previous Version | Text Only | Print | Product List | Glossary Off
Versions: 1 2 3 4 5 6 7 8 9 10 11 12 13 14 15 16 17 18 19 20 21 22 23 24 25 26 27 28 29 30 31 32 33 34 35 36 37 38 39 40 41 42 43 44 45 46 47 48 49 50

000
AXUS43 KGID 172002
MISGRI

GID CWA HOURLY WEATHER ROUNDUP
NATIONAL WEATHER SERVICE HASTINGS NE
300 PM CDT TUE OCT 17 2017

NOTE: "FAIR" INDICATES FEW OR NO CLOUDS BELOW 12,000 FEET WITH NO
SIGNIFICANT WEATHER AND/OR OBSTRUCTIONS TO VISIBILITY.

...SOUTH CENTRAL NEBRASKA...

CITY           SKY/WX    TMP DP  RH WIND       PRES   REMARKS
GRAND ISLAND   SUNNY     78  37  22 S5        30.03F
HASTINGS       SUNNY     77  36  22 VRB3      30.03F
KEARNEY        SUNNY     77  30  17 W3        30.04F
ORD            SUNNY     76  32  20 SW6       30.01F
YORK           SUNNY     75  41  29 S5        30.03F
AURORA         SUNNY     77  40  26 CALM      30.02F
LEXINGTON      SUNNY     78  34  19 SW7       30.04F
HOLDREGE       SUNNY     77  34  21 CALM      30.04F
HEBRON         SUNNY     74  41  31 S7        30.04F

...NEBRASKA PANHANDLE...

CITY           SKY/WX    TMP DP  RH WIND       PRES   REMARKS
CHADRON        SUNNY     76  17  11 SW8       29.97F
ALLIANCE       SUNNY     75  17  11 W16       30.02F
SCOTTSBLUFF    SUNNY     77  15   9 W10       30.03F
SIDNEY         SUNNY     79  13   8 SW14G30   30.07F

...WESTERN AND NORTH CENTRAL NEBRASKA...

CITY           SKY/WX    TMP DP  RH WIND       PRES   REMARKS
VALENTINE      SUNNY     83  25  12 S16G22    29.95F
AINSWORTH      SUNNY     76  35  22 S10G16    29.99F
ONEILL         SUNNY     78  41  26 SW8       30.00F
BROKEN BOW     SUNNY     77  40  26 S12       30.03F
IMPERIAL       SUNNY     80  17   9 S9        30.06F
NORTH PLATTE   SUNNY     79  28  15 W8        30.03F
MCCOOK         SUNNY     78  30  17 S3        30.05F

...EASTERN NEBRASKA...

CITY           SKY/WX    TMP DP  RH WIND       PRES   REMARKS
NORFOLK        SUNNY     77  39  25 S5        29.98F
SO SIOUX CITY  SUNNY     74  48  39 SE5       30.00F
TEKAMAH        SUNNY     72  42  34 SW7       30.01F
COLUMBUS       SUNNY     75  43  31 VRB3      30.02F
ALBION         SUNNY     79  35  21 CALM      30.01F
OMAHA EPPLEY   SUNNY     71  44  37 S10       30.03F
OFFUTT AFB     SUNNY     71  44  37 S13       30.02F
MILLARD        SUNNY     71  46  41 S7        30.03F
LINCOLN        SUNNY     71  45  39 VRB3      30.04F
NEBRASKA CITY  SUNNY     71  45  39 SW12G17   30.04F
BEATRICE       SUNNY     70  47  43 S8        30.04F
FALLS CITY     SUNNY     72  45  37 S10       30.05F

...NORTHERN KANSAS...

CITY           SKY/WX    TMP DP  RH WIND       PRES   REMARKS
GOODLAND       SUNNY     80  22  11 SE8       30.09F
HILL CITY      SUNNY     80  33  18 E5        30.05F
NORTON         CLEAR     79  21  11 CALM      30.04F
PHILLIPSBURG   SUNNY     81  30  16 CALM      30.04F
SMITH CENTER   SUNNY     75  41  29 SE3       30.05F
HAYS           SUNNY     80  34  19 SE6       30.04F
RUSSELL        SUNNY     79  43  27 S7        30.03F
CONCORDIA      SUNNY     72  46  39 S12       30.05F
SALINA         SUNNY     77  48  35 SW14G22   30.06F
TOPEKA         SUNNY     74  45  35 S14G21    30.08F



USA.gov is the U.S. government's official web portal to all federal, state and local government web resources and services.